Date String (YYYY-MM-DD hh:mm:ss) UTC,Instrument flags,Ambient pressure (hPa),Sample flow (lpm),Bypass flow (lpm),Sample temperature (°C),Ambient temperature (°C),ASC tube jacket temperature (°C),LED temperature (°C),Box temperature (°C),Sample RH (%),Span deviation,Mass concentration (μg/m³),Mass concentration (μg/m³),Mass concentration (μg/m³)
DateTimeUTC,F1_M11,P_M11,Q1_M11,Q2_M11,T1_M11,T2_M11,T3_M11,T4_M11,T5_M11,U1_M11,ZSPAN_M11,X0_M11,X2_M11,X1_M11
2023-04-25 06:00:00,,0822.9,5.00,0.00,27.1,25.1,00.0,35.8,28.6,14.2,0000.0,0007.71,0004.36,0003.77
2023-04-25 06:01:00,,0823.0,5.00,0.00,27.1,25.1,00.0,35.7,28.6,14.4,0000.0,0007.62,0004.32,0003.74
2023-04-25 06:02:00,,0822.8,4.99,0.00,27.1,25.0,00.0,35.7,28.5,14.8,0000.0,0007.64,0004.28,0003.69
2023-04-25 06:03:00,,0822.9,5.00,0.00,27.0,25.0,00.0,35.7,28.5,15.1,0000.0,0007.73,0004.25,0003.64
2023-04-25 06:04:00,,0822.7,5.01,0.00,27.0,24.9,00.0,35.7,28.5,15.5,0000.0,0007.71,0004.21,0003.59
2023-04-25 06:05:00,,0822.9,5.00,0.00,27.0,24.9,00.0,35.6,28.5,15.6,0000.0,0007.72,0004.17,0003.53
2023-04-25 06:06:00,,0822.9,5.00,0.00,27.0,24.9,00.0,35.6,28.4,15.7,0000.0,0007.71,0004.12,0003.49
2023-04-25 06:07:00,,0822.8,4.99,0.00,26.9,24.8,00.0,35.6,28.4,15.7,0000.0,0007.77,0004.10,0003.43
2023-04-25 06:08:00,,0822.7,4.99,0.00,26.9,24.8,00.0,35.5,28.4,15.8,0000.0,0007.76,0004.06,0003.38
2023-04-25 06:09:00,,0822.8,5.00,0.00,26.9,24.8,00.0,35.5,28.3,16.0,0000.0,0007.64,0003.99,0003.33
2023-04-25 06:10:00,,0822.8,5.02,0.00,26.8,24.7,00.0,35.5,28.3,16.1,0000.0,0007.60,0003.95,0003.28
2023-04-25 06:11:00,,0822.6,5.00,0.00,26.8,24.8,00.0,35.5,28.4,16.2,0000.0,0007.60,0003.95,0003.24
2023-04-25 06:12:00,,0822.6,4.98,0.00,26.8,24.8,00.0,35.4,28.4,16.0,0000.0,0007.49,0003.88,0003.21
2023-04-25 06:13:00,,0822.7,5.01,0.00,26.8,24.8,00.0,35.4,28.4,15.9,0000.0,0007.22,0003.82,0003.19
2023-04-25 06:14:00,,0822.9,5.00,0.00,26.8,24.8,00.0,35.4,28.4,15.9,0000.0,0006.80,0003.75,0003.17
2023-04-25 06:15:00,,0822.8,5.00,0.00,26.8,24.8,00.0,35.4,28.4,16.2,0000.0,0006.62,0003.72,0003.16
2023-04-25 06:16:00,,0822.9,5.00,0.00,26.8,24.7,00.0,35.4,28.4,16.3,0000.0,0006.49,0003.69,0003.16
2023-04-25 06:17:00,,0823.1,5.00,0.00,26.8,24.7,00.0,35.3,28.3,16.4,0000.0,0006.42,0003.69,0003.17
2023-04-25 06:18:00,,0822.9,5.00,0.00,26.8,24.7,00.0,35.3,28.3,16.5,0000.0,0006.31,0003.67,0003.17
2023-04-25 06:19:00,,0822.9,4.98,0.00,26.8,24.7,00.0,35.3,28.3,16.6,0000.0,0006.32,0003.64,0003.16
2023-04-25 06:20:00,,0822.8,5.00,0.00,26.8,24.7,00.0,35.3,28.3,16.7,0000.0,0006.53,0003.66,0003.15
2023-04-25 06:21:00,,0822.9,5.01,0.00,26.8,24.7,00.0,35.3,28.3,16.8,0000.0,0006.53,0003.66,0003.15
2023-04-25 06:22:00,,0822.9,5.00,0.00,26.8,24.7,00.0,35.3,28.3,16.8,0000.0,0006.34,0003.59,0003.15
2023-04-25 06:23:00,,0822.8,5.00,0.00,26.7,24.7,00.0,35.2,28.3,16.9,0000.0,0006.28,0003.61,0003.15
2023-04-25 06:24:00,,0822.9,4.99,0.00,26.7,24.7,00.0,35.2,28.3,17.0,0000.0,0006.67,0003.63,0003.15
2023-04-25 06:25:00,,0822.9,5.00,0.00,26.7,24.7,00.0,35.2,28.3,17.1,0000.0,0007.01,0003.62,0003.15
2023-04-25 06:26:00,,0822.8,5.01,0.00,26.7,24.7,00.0,35.2,28.3,17.3,0000.0,0007.06,0003.61,0003.15
2023-04-25 06:27:00,,0822.9,4.99,0.00,26.7,24.7,00.0,35.2,28.2,17.4,0000.0,0007.94,0003.63,0003.13
2023-04-25 06:28:00,,0822.9,5.00,0.00,26.7,24.7,00.0,35.2,28.2,17.5,0000.0,0007.92,0003.62,0003.12
2023-04-25 06:29:00,,0822.9,5.00,0.00,26.7,24.7,00.0,35.1,28.2,17.5,0000.0,0007.95,0003.61,0003.11
2023-04-25 06:30:00,,0822.9,4.99,0.00,26.6,24.7,00.0,35.1,28.2,17.6,0000.0,0007.86,0003.61,0003.11
2023-04-25 06:31:00,,0822.9,5.00,0.00,26.6,24.7,00.0,35.1,28.2,17.6,0000.0,0007.68,0003.57,0003.12
2023-04-25 06:32:00,,0822.9,5.00,0.00,26.6,24.7,00.0,35.1,28.2,17.7,0000.0,0007.60,0003.54,0003.12
2023-04-25 06:33:00,,0822.9,5.01,0.00,26.6,24.7,00.0,35.1,28.1,17.7,0000.0,0007.53,0003.53,0003.10
2023-04-25 06:34:00,,0822.9,5.01,0.00,26.6,24.7,00.0,35.1,28.1,17.7,0000.0,0007.54,0003.54,0003.11
2023-04-25 06:35:00,,0822.9,5.00,0.00,26.6,24.7,00.0,35.1,28.1,17.7,0000.0,0007.30,0003.54,0003.10
2023-04-25 06:36:00,,0822.8,5.00,0.00,26.5,24.7,00.0,35.1,28.0,17.8,0000.0,0007.11,0003.57,0003.11
2023-04-25 06:37:00,,0822.9,5.00,0.00,26.5,24.7,00.0,35.1,27.9,17.8,0000.0,0007.06,0003.58,0003.11
2023-04-25 06:38:00,,0823.0,5.00,0.00,26.5,24.7,00.0,35.0,28.0,17.9,0000.0,0005.62,0003.56,0003.12
2023-04-25 06:39:00,,0823.0,5.01,0.00,26.5,24.7,00.0,35.0,28.1,17.9,0000.0,0005.63,0003.55,0003.12
2023-04-25 06:40:00,,0823.0,5.00,0.00,26.5,24.7,00.0,35.0,28.0,17.9,0000.0,0005.48,0003.54,0003.12
2023-04-25 06:41:00,,0822.9,5.00,0.00,26.5,24.7,00.0,35.0,28.0,18.0,0000.0,0005.35,0003.51,0003.12
2023-04-25 06:42:00,,0822.8,5.00,0.00,26.5,24.7,00.0,35.0,28.0,18.0,0000.0,0005.49,0003.54,0003.12
2023-04-25 06:43:00,,0822.9,4.99,0.00,26.5,24.7,00.0,35.0,27.9,18.0,0000.0,0005.90,0003.54,0003.12
2023-04-25 06:44:00,,0822.8,5.00,0.00,26.4,24.7,00.0,35.0,27.9,18.0,0000.0,0005.94,0003.54,0003.12
2023-04-25 06:45:00,,0823.0,5.01,0.00,26.4,24.7,00.0,35.0,27.9,18.0,0000.0,0005.80,0003.49,0003.12
2023-04-25 06:46:00,,0822.9,5.00,0.00,26.4,24.6,00.0,34.9,27.9,18.0,0000.0,0005.73,0003.48,0003.12
2023-04-25 06:47:00,,0823.0,4.99,0.00,26.4,24.6,00.0,34.9,27.9,18.0,0000.0,0005.73,0003.48,0003.12
2023-04-25 06:48:00,,0822.9,5.01,0.00,26.4,24.6,00.0,34.9,27.9,18.1,0000.0,0005.71,0003.47,0003.12
2023-04-25 06:49:00,,0822.9,4.99,0.00,26.4,24.6,00.0,34.9,27.9,18.0,0000.0,0005.86,0003.48,0003.12
2023-04-25 06:50:00,,0822.9,5.00,0.00,26.4,24.6,00.0,34.9,27.9,18.0,0000.0,0005.76,0003.48,0003.13
2023-04-25 06:51:00,,0822.9,5.00,0.00,26.4,24.6,00.0,34.9,27.9,18.1,0000.0,0005.71,0003.48,0003.14
2023-04-25 06:52:00,,0822.9,5.00,0.00,26.4,24.6,00.0,34.9,27.9,18.1,0000.0,0005.70,0003.48,0003.14
2023-04-25 06:53:00,,0822.9,5.00,0.00,26.4,24.6,00.0,34.9,27.9,18.1,0000.0,0005.82,0003.50,0003.14
2023-04-25 06:54:00,,0822.9,5.00,0.00,26.4,24.6,00.0,34.9,27.9,18.1,0000.0,0005.55,0003.52,0003.14
2023-04-25 06:55:00,,0822.9,5.00,0.00,26.4,24.6,00.0,34.8,27.9,18.2,0000.0,0005.56,0003.57,0003.14
2023-04-25 06:56:00,,0823.0,5.01,0.00,26.3,24.6,00.0,34.8,27.8,18.2,0000.0,0005.56,0003.59,0003.15
2023-04-25 06:57:00,,0823.0,4.98,0.00,26.3,24.6,00.0,34.8,27.8,18.3,0000.0,0005.70,0003.62,0003.16
2023-04-25 06:58:00,,0823.0,5.00,0.00,26.3,24.6,00.0,34.8,27.9,18.4,0000.0,0005.83,0003.64,0003.16
2023-04-25 06:59:00,,0822.9,4.99,0.00,26.3,24.6,00.0,34.8,27.9,18.4,0000.0,0005.87,0003.65,0003.17
